Terminal Aerodrome Forecast
Issued by NWS Grand Junction, CO

Home | Current Version | Previous Version | Text Only | Print | Product List | Glossary On
Versions: 1 2 3 4 5 6 7 8 9 10 11 12 13 14 15 16 17 18 19 20 21 22 23 24 25 26 27 28 29 30 31 32 33 34 35 36
000
FTUS45 KGJT 032023 AAB
TAFGJT
TAF AMD
KGJT 032023Z 0320/0418 15017G27KT P6SM SCT090 BKN200
     FM032300 17014G22KT P6SM SCT100 BKN200
     FM040200 14006KT P6SM BKN150
     FM040600 10009KT P6SM BKN150
     FM041400 14012KT P6SM SCT100 BKN150=

USA.gov is the U.S. government's official web portal to all federal, state and local government web resources and services.